Location: Ostrava
(49.8330°N, 18.2830°E)
Time: 21:48:29
(UTC+02:00)

Cosmos 2221 - Visible Passes

Search period start: 25 April 2015 00:00
Search period end: 05 May 2015 00:00
Orbit: 595 x 621 km, 82.5° (Epoch: 24 April)

Date Brightness Start Highest point End Pass type
(mag) Time Alt. Az. Time Alt. Az. Time Alt. Az.
25 Apr 5.2 01:49:50 10° NNE 01:52:20 15° ENE 01:54:57 10° E visible
25 Apr 2.4 03:26:15 10° NNW 03:30:32 68° W 03:32:39 29° S visible
26 Apr 4.6 02:03:00 10° NNE 02:06:25 23° ENE 02:09:08 14° ESE visible
26 Apr 3.0 03:40:14 10° NNW 03:44:17 41° W 03:46:01 27° SW visible
27 Apr 3.9 02:16:28 10° N 02:20:26 35° ENE 02:22:32 22° ESE visible
27 Apr 3.6 03:54:22 10° NNW 03:57:58 26° W 03:59:26 21° WSW visible
28 Apr 3.0 02:30:05 10° N 02:34:20 57° ENE 02:35:58 34° SE visible
28 Apr 4.2 04:08:49 10° NW 04:11:36 17° W 04:12:52 15° WSW visible
29 Apr 5.2 01:08:06 10° NE 01:09:46 12° ENE 01:11:38 10° E visible
29 Apr 2.4 02:43:51 10° N 02:48:11 88° WSW 02:49:26 46° S visible
29 Apr 4.7 04:24:28 10° WNW 04:25:10 10° W 04:25:39 10° W visible
30 Apr 4.8 01:20:54 10° NNE 01:23:54 18° ENE 01:26:00 14° E visible
30 Apr 2.7 02:57:43 10° NNW 03:01:56 54° W 03:02:55 43° SW visible
01 May 4.2 01:34:12 10° N 01:37:55 28° ENE 01:39:31 22° ESE visible
01 May 3.3 03:11:45 10° NNW 03:15:38 33° W 03:16:25 31° WSW visible
02 May 3.4 01:47:44 10° N 01:51:53 43° ENE 01:53:02 35° ESE visible
02 May 3.9 03:25:58 10° NW 03:29:16 21° W 03:29:56 20° W visible
03 May 2.6 02:01:24 10° N 02:05:44 71° ENE 02:06:34 54° SE visible
03 May 4.5 03:40:39 10° NW 03:42:52 14° W 03:43:28 13° W visible
04 May 4.9 00:38:51 10° NNE 00:41:16 15° ENE 00:43:13 12° E visible
04 May 2.4 02:15:11 10° NNW 02:19:30 71° W 02:20:07 60° SSW visible
